Minneapolis, MN

10:45 PM CST on February 12, 2016 (GMT -0600)
Minneapolis-Saint Paul International

Weather History for KMSP - July, 2013

Change the Weather History Date:

Thursday, July 25, 2013

  Actual Average Record
Temperature  
Mean Temperature 74 °F 74 °F  
Max Temperature 83 °F 83 °F 99 °F (1999)
Min Temperature 64 °F 64 °F 50 °F (1891)
Degree Days  
Heating Degree Days 0 0  
Month to date heating degree days 0 0  
Since 1 June heating degree days 42 44  
Since 1 July heating degree days 0 0  
Cooling Degree Days 9 9  
Month to date cooling degree days 307 223  
Year to date cooling degree days 524 423  
Since 1 June cooling degree days 471 381  
Growing Degree Days 23 (Base 50)    
Moisture  
Dew Point 60 °F    
Average Humidity 61    
Maximum Humidity 84    
Minimum Humidity 37    
Precipitation  
Precipitation 0.03 in 0.13 in 2.07 in (1878)
Month to date precipitation 3.48 3.22  
Year to date precipitation 24.34 17.05  
Snow  
Snow 0.00 in 0.00 in 0.00 in ()
Month to date snowfall 0.0 0.0  
Since 1 June snowfall 0.0 0.0  
Since 1 July snowfall 0.0 0.0  
Snow Depth 0.00 in    
Sea Level Pressure  
Sea Level Pressure 29.94 in    
Wind  
Wind Speed 7 mph (WSW)    
Max Wind Speed 16 mph    
Max Gust Speed 21 mph    
Visibility 10 miles    
Events Rain    
T = Trace of Precipitation, MM = Missing Value Source: NWS Daily Summary

Daily Weather History Graph

Daily Weather History Graph

Search for Another Location

Airport or City:

Trip Planner

Search our weather history database for the weather conditions in past years. The results will help you decide how hot, cold, wet, or windy it might be!

Date:

Astronomy

Jul. 25, 2013 Rise Set
Actual Time 5:51 AM CDT 8:46 PM CDT
Civil Twilight 5:16 AM CDT 9:21 PM CDT
Nautical Twilight 4:32 AM CDT 10:05 PM CDT
Astronomical Twilight 3:40 AM CDT 10:57 PM CDT
Moon 10:14 PM CDT (7/25) 9:33 AM CDT (7/25)
Length of Visible Light 16h 04m
Length of Day
14h 55m
Waning Gibbous, 88% of the Moon is Illuminated
Jul 25
Waning Gibbous
Jul 29
Last Quarter
Aug 6
New
Aug 14
First Quarter
Aug 20
Full

Hourly Weather History & Observations

Time (CDT) Temp. Heat Index Dew Point Humidity Pressure Visibility Wind Dir Wind Speed Gust Speed Precip Events Conditions
12:53 AM 69.1 °F - 59.0 °F 70% 29.98 in 10.0 mi South 5.8 mph - N/A   Overcast
1:53 AM 66.9 °F - 59.0 °F 76% 29.96 in 10.0 mi ESE 4.6 mph - N/A   Overcast
2:53 AM 68.0 °F - 61.0 °F 78% 29.95 in 5.0 mi ESE 3.5 mph - 0.03 in Rain Light Rain
3:53 AM 66.9 °F - 62.1 °F 84% 29.96 in 10.0 mi West 3.5 mph - 0.00 in   Mostly Cloudy
4:53 AM 66.9 °F - 59.0 °F 76% 29.95 in 10.0 mi South 3.5 mph - N/A   Scattered Clouds
5:53 AM 66.0 °F - 59.0 °F 78% 29.94 in 10.0 mi SSW 4.6 mph - N/A   Scattered Clouds
6:53 AM 64.9 °F - 59.0 °F 81% 29.95 in 10.0 mi SSW 4.6 mph - N/A   Scattered Clouds
7:53 AM 68.0 °F - 60.1 °F 76% 29.95 in 10.0 mi SW 8.1 mph - N/A   Scattered Clouds
8:53 AM 72.0 °F - 62.1 °F 71% 29.96 in 10.0 mi WSW 8.1 mph - N/A   Scattered Clouds
9:53 AM 75.9 °F - 63.0 °F 64% 29.95 in 10.0 mi West 6.9 mph - N/A   Scattered Clouds
10:53 AM 78.1 °F - 64.9 °F 64% 29.95 in 10.0 mi WSW 8.1 mph - N/A   Mostly Cloudy
11:53 AM 78.1 °F - 64.0 °F 62% 29.95 in 10.0 mi WSW 5.8 mph - N/A   Overcast
12:53 PM 80.1 °F 81.5 °F 63.0 °F 56% 29.96 in 10.0 mi WSW 10.4 mph - N/A   Mostly Cloudy
1:53 PM 81.0 °F 83.0 °F 66.0 °F 60% 29.94 in 10.0 mi West 8.1 mph - N/A   Mostly Cloudy
2:53 PM 80.1 °F 81.1 °F 61.0 °F 52% 29.94 in 10.0 mi West 12.7 mph - N/A   Mostly Cloudy
3:53 PM 79.0 °F - 62.1 °F 56% 29.94 in 10.0 mi NW 16.1 mph 20.7 mph N/A   Mostly Cloudy
4:53 PM 81.0 °F 80.8 °F 55.9 °F 42% 29.91 in 10.0 mi Calm Calm - N/A   Scattered Clouds
5:53 PM 82.0 °F 81.3 °F 54.0 °F 38% 29.91 in 10.0 mi SSW 6.9 mph - N/A   Scattered Clouds
6:53 PM 80.1 °F 80.7 °F 59.0 °F 48% 29.90 in 10.0 mi West 4.6 mph - N/A   Mostly Cloudy
7:53 PM 78.1 °F - 57.9 °F 50% 29.91 in 10.0 mi NW 5.8 mph 17.3 mph N/A   Mostly Cloudy
8:53 PM 78.1 °F - 57.9 °F 50% 29.91 in 10.0 mi West 5.8 mph - N/A   Mostly Cloudy
9:53 PM 77.0 °F - 57.9 °F 52% 29.92 in 10.0 mi West 6.9 mph - N/A   Mostly Cloudy
10:53 PM 75.9 °F - 62.1 °F 62% 29.92 in 10.0 mi SSW 9.2 mph - N/A   Mostly Cloudy
11:53 PM 73.4 °F - 64.4 °F 73% 29.91 in 10.0 mi SW 9.2 mph - N/A   Mostly Cloudy